Weather History for Plymouth, MA

Change the Weather History Date:

Saturday, October 5, 2013

  Actual Average Record
Temperature  
Mean Temperature 62 °F -  
Max Temperature 68 °F 66 °F 82 °F (1959)
Min Temperature 55 °F 45 °F 30 °F (1965)
Degree Days  
Heating Degree Days 4    
Growing Degree Days 12 (Base 50)    
Moisture  
Dew Point 56 °F    
Average Humidity 83    
Maximum Humidity 94    
Minimum Humidity 68    
Precipitation  
Precipitation 0.00 in - - ()
Sea Level Pressure  
Sea Level Pressure 30.09 in    
Wind  
Wind Speed 2 mph (NE)    
Max Wind Speed 9 mph    
Max Gust Speed -    
Visibility 9 miles    
Events      
Averages and records for this station are not official NWS values.
T = Trace of Precipitation, MM = Missing Value Source: NWS Daily Summary

Daily Weather History Graph

Daily Weather History Graph

Search for Another Location

Airport:

Trip Planner

Search our weather history database for the weather conditions in past years. The results will help you decide how hot, cold, wet, or windy it might be!

Date:

Astronomy

Oct. 05, 2013 Rise Set
Actual Time 6:44 AM EDT 6:17 PM EDT
Civil Twilight 6:16 AM EDT 6:45 PM EDT
Nautical Twilight 5:44 AM EDT 7:17 PM EDT
Astronomical Twilight 5:11 AM EDT 7:49 PM EDT
Moon 7:21 AM EDT (10/5) 6:32 PM EDT (10/5)
Length of Visible Light 12h 28m
Length of Day
11h 33m
New Moon, 0% of the Moon is Illuminated
Oct 5
New Moon
Oct 11
First Quarter
Oct 18
Full
Oct 26
Last Quarter
Nov 3
New

Hourly Weather History & Observations

Time (EDT) Temp. Dew Point Humidity Pressure Visibility Wind Dir Wind Speed Gust Speed Precip Events Conditions
12:52 AM 57.9 °F 55.0 °F 90% 30.07 in 6.0 mi Calm Calm - N/A   Overcast
1:41 AM 55.4 °F 53.6 °F 94% 30.08 in 1.8 mi Calm Calm - N/A   Mostly Cloudy
1:52 AM 55.9 °F 54.0 °F 93% 30.08 in 4.0 mi Calm Calm - N/A   Mostly Cloudy
2:52 AM 57.9 °F 55.0 °F 90% 30.07 in 7.0 mi Calm Calm - N/A   Overcast
3:52 AM 57.9 °F 55.9 °F 93% 30.06 in 6.0 mi Calm Calm - N/A   Overcast
4:52 AM 59.0 °F 57.0 °F 93% 30.07 in 10.0 mi Calm Calm - N/A   Overcast
5:52 AM 59.0 °F 55.9 °F 90% 30.08 in 8.0 mi Calm Calm - 0.00 in   Overcast
6:52 AM 60.1 °F 55.9 °F 86% 30.09 in 10.0 mi NNE 3.5 mph - N/A   Overcast
7:52 AM 60.1 °F 57.0 °F 90% 30.09 in 10.0 mi Calm Calm - N/A   Overcast
8:52 AM 61.0 °F 57.0 °F 87% 30.10 in 10.0 mi NNE 4.6 mph - N/A   Overcast
9:16 AM 62.6 °F 57.2 °F 82% 30.11 in 10.0 mi NE 6.9 mph - N/A   Overcast
9:52 AM 63.0 °F 57.9 °F 84% 30.10 in 10.0 mi NE 4.6 mph - N/A   Mostly Cloudy
10:52 AM 66.0 °F 57.0 °F 73% 30.10 in 10.0 mi Variable 3.5 mph - N/A   Scattered Clouds
11:22 AM 66.2 °F 57.2 °F 73% 30.10 in 10.0 mi NE 8.1 mph - N/A   Overcast
11:40 AM 64.4 °F 57.2 °F 77% 30.10 in 10.0 mi NE 5.8 mph - N/A   Overcast
11:52 AM 66.9 °F 57.0 °F 70% 30.10 in 10.0 mi Variable 5.8 mph - N/A   Overcast
12:52 PM 68.0 °F 57.0 °F 68% 30.09 in 10.0 mi NE 4.6 mph - N/A   Overcast
1:52 PM 66.0 °F 57.0 °F 73% 30.08 in 10.0 mi ENE 9.2 mph - N/A   Overcast
2:52 PM 64.9 °F 55.9 °F 73% 30.08 in 10.0 mi ENE 6.9 mph - N/A   Overcast
3:52 PM 64.9 °F 55.0 °F 70% 30.08 in 10.0 mi ENE 6.9 mph - N/A   Overcast
4:52 PM 64.9 °F 55.0 °F 70% 30.08 in 10.0 mi ENE 5.8 mph - N/A   Mostly Cloudy
5:52 PM 63.0 °F 55.0 °F 75% 30.10 in 10.0 mi NE 4.6 mph - N/A   Clear
6:52 PM 60.1 °F 55.0 °F 83% 30.09 in 10.0 mi ENE 3.5 mph - N/A   Clear
7:52 PM 57.9 °F 55.0 °F 90% 30.11 in 10.0 mi Calm Calm - N/A   Clear
8:52 PM 57.0 °F 54.0 °F 89% 30.11 in 9.0 mi Calm Calm - N/A   Partly Cloudy
9:52 PM 57.9 °F 54.0 °F 87% 30.13 in 9.0 mi Calm Calm - N/A   Overcast
10:52 PM 57.0 °F 54.0 °F 89% 30.12 in 10.0 mi Calm Calm - N/A   Scattered Clouds
11:52 PM 57.9 °F 54.0 °F 87% 30.13 in 10.0 mi Calm Calm - N/A   Overcast